Faribault, MN

1:59 PM CDT on August 21, 2017 (GMT -0500)
Faribault Municipal

Weather History for KFBL - May, 2013

Change the Weather History Date:

Saturday, May 18, 2013

  Actual Average Record
Temperature  
Mean Temperature 68 °F -  
Max Temperature 80 °F 73 °F 94 °F (1987)
Min Temperature 57 °F 48 °F 32 °F (1976)
Cooling Degree Days 4    
Growing Degree Days 18 (Base 50)    
Moisture  
Dew Point 61 °F    
Average Humidity 80    
Maximum Humidity 100    
Minimum Humidity 57    
Precipitation  
Precipitation 0.00 in - - ()
Sea Level Pressure  
Sea Level Pressure 29.91 in    
Wind  
Wind Speed 10 mph (SE)    
Max Wind Speed 17 mph    
Max Gust Speed 24 mph    
Visibility 8 miles    
Events Rain , Thunderstorm    
Averages and records for this station are not official NWS values.
T = Trace of Precipitation, MM = Missing Value Source: NWS Daily Summary

Daily Weather History Graph

Daily Weather History Graph

Search for Another Location

Airport or City:

Trip Planner

Search our weather history database for the weather conditions in past years. The results will help you decide how hot, cold, wet, or windy it might be!

Date:

Astronomy

May. 18, 2013 Rise Set
Actual Time 5:42 AM CDT 8:37 PM CDT
Civil Twilight 5:08 AM CDT 9:11 PM CDT
Nautical Twilight 4:25 AM CDT 9:54 PM CDT
Astronomical Twilight 3:34 AM CDT 10:46 PM CDT
Moon 1:25 PM CDT (5/18) 1:51 AM CDT (5/18)
Length of Visible Light 16h 02m
Length of Day
14h 54m
First Quarter, 55% of the Moon is Illuminated
May 18
First Quarter
May 24
Full
May 31
Last Quarter
Jun 8
New
Jun 16
First Quarter

Hourly Weather History & Observations

Time (CDT) Temp. Heat Index Dew Point Humidity Pressure Visibility Wind Dir Wind Speed Gust Speed Precip Events Conditions
12:14 AM 59.0 °F - 57.2 °F 94% 29.96 in 7.0 mi ESE 10.4 mph 18.4 mph N/A   Scattered Clouds
12:34 AM 59.0 °F - 57.2 °F 94% 29.96 in 10.0 mi ESE 9.2 mph - N/A   Scattered Clouds
12:54 AM 59.0 °F - 57.2 °F 94% 29.95 in 10.0 mi ESE 13.8 mph 21.9 mph N/A   Mostly Cloudy
1:14 AM 59.0 °F - 57.2 °F 94% 29.95 in 10.0 mi ESE 12.7 mph - N/A   Overcast
1:34 AM 57.2 °F - 57.2 °F 100% 29.95 in 10.0 mi SE 10.4 mph - N/A   Overcast
1:54 AM 57.2 °F - 57.2 °F 100% 29.94 in 10.0 mi SE 10.4 mph 18.4 mph N/A   Scattered Clouds
2:14 AM 57.2 °F - 57.2 °F 100% 29.94 in 10.0 mi SE 8.1 mph - N/A   Clear
2:34 AM 59.0 °F - 57.2 °F 94% 29.94 in 10.0 mi SE 9.2 mph - N/A   Clear
2:54 AM 59.0 °F - 55.4 °F 88% 29.93 in 10.0 mi SE 11.5 mph - N/A   Clear
3:14 AM 60.8 °F - 55.4 °F 82% 29.93 in 10.0 mi SSE 9.2 mph 16.1 mph N/A   Clear
3:34 AM 59.0 °F - 55.4 °F 88% 29.93 in 10.0 mi SSE 9.2 mph - N/A   Clear
3:54 AM 59.0 °F - 55.4 °F 88% 29.93 in 10.0 mi SE 9.2 mph - N/A   Clear
4:14 AM 59.0 °F - 55.4 °F 88% 29.93 in 10.0 mi SE 8.1 mph - N/A   Clear
4:34 AM 59.0 °F - 55.4 °F 88% 29.93 in 10.0 mi SSE 10.4 mph - N/A   Clear
4:54 AM 59.0 °F - 55.4 °F 88% 29.93 in 10.0 mi SSE 9.2 mph - N/A   Clear
5:14 AM 59.0 °F - 55.4 °F 88% 29.93 in 10.0 mi SSE 6.9 mph - N/A Thunderstorm Clear
5:34 AM 59.0 °F - 55.4 °F 88% 29.94 in 7.0 mi SSE 4.6 mph - N/A   Scattered Clouds
5:53 AM 57.2 °F - 55.4 °F 94% 29.94 in 7.0 mi South 3.5 mph - N/A Thunderstorm Unknown
6:14 AM 57.2 °F - 55.4 °F 94% 29.94 in 7.0 mi SSE 3.5 mph - N/A   Mostly Cloudy
6:34 AM 59.0 °F - 55.4 °F 88% 29.94 in 5.0 mi SSE 6.9 mph - N/A   Scattered Clouds
6:54 AM 59.0 °F - 57.2 °F 94% 29.94 in 5.0 mi SE 4.6 mph - N/A   Mostly Cloudy
7:14 AM 60.8 °F - 57.2 °F 88% 29.95 in 5.0 mi SSE 5.8 mph - N/A   Mostly Cloudy
7:34 AM 60.8 °F - 57.2 °F 88% 29.95 in 5.0 mi SSE 6.9 mph - N/A   Scattered Clouds
7:54 AM 60.8 °F - 57.2 °F 88% 29.95 in 5.0 mi SE 9.2 mph - N/A   Mostly Cloudy
8:14 AM 62.6 °F - 59.0 °F 88% 29.97 in 5.0 mi SSE 4.6 mph - N/A Thunderstorm Overcast
8:34 AM 62.6 °F - 59.0 °F 88% 29.99 in 5.0 mi NNW 6.9 mph - N/A   Mostly Cloudy
8:54 AM 60.8 °F - 57.2 °F 88% 30.01 in 4.0 mi North 6.9 mph - N/A Thunderstorm Overcast
9:13 AM 57.2 °F - 57.2 °F 100% 29.99 in 4.0 mi NNE 12.7 mph - N/A Thunderstorm Mostly Cloudy
9:34 AM 57.2 °F - 57.2 °F 100% 29.98 in 4.0 mi NE 5.8 mph - N/A Rain Light Rain
9:54 AM 60.8 °F - 59.0 °F 94% 29.98 in 5.0 mi ENE 6.9 mph - N/A Thunderstorm Scattered Clouds
10:14 AM 62.6 °F - 60.8 °F 94% 29.97 in 5.0 mi East 6.9 mph - N/A   Scattered Clouds
10:34 AM 60.8 °F - 57.2 °F 88% 29.99 in 5.0 mi North 10.4 mph - N/A   Scattered Clouds
10:53 AM 57.2 °F - 55.4 °F 94% 29.99 in 5.0 mi NNE 12.7 mph - N/A Thunderstorm Mostly Cloudy
11:14 AM 60.8 °F - 57.2 °F 88% 29.98 in 7.0 mi ENE 11.5 mph - N/A   Scattered Clouds
11:33 AM 62.6 °F - 59.0 °F 88% 29.98 in 7.0 mi ENE 9.2 mph - N/A   Scattered Clouds
11:54 AM 64.4 °F - 60.8 °F 88% 29.96 in 7.0 mi ENE 12.7 mph 16.1 mph N/A   Scattered Clouds
12:14 PM 66.2 °F - 60.8 °F 83% 29.95 in 7.0 mi ENE 8.1 mph - N/A   Clear
12:34 PM 69.8 °F - 64.4 °F 83% 29.93 in 7.0 mi East 11.5 mph - N/A   Clear
12:54 PM 73.4 °F - 66.2 °F 78% 29.92 in 7.0 mi ESE 12.7 mph - N/A   Clear
1:13 PM 73.4 °F - 64.4 °F 73% 29.91 in 10.0 mi SE 17.3 mph - N/A   Scattered Clouds
1:34 PM 75.2 °F - 64.4 °F 69% 29.90 in 10.0 mi SE 17.3 mph 20.7 mph N/A   Scattered Clouds
2:14 PM 77.0 °F - 64.4 °F 65% 29.89 in 10.0 mi SSE 13.8 mph 20.7 mph N/A   Scattered Clouds
2:34 PM 77.0 °F - 64.4 °F 65% 29.89 in 10.0 mi SSE 17.3 mph 21.9 mph N/A   Scattered Clouds
2:54 PM 78.8 °F - 64.4 °F 61% 29.88 in 10.0 mi SSE 13.8 mph - N/A   Mostly Cloudy
3:14 PM 78.8 °F - 64.4 °F 61% 29.88 in 10.0 mi SSE 15.0 mph 24.2 mph N/A   Mostly Cloudy
3:34 PM 78.8 °F - 64.4 °F 61% 29.87 in 10.0 mi South 15.0 mph 20.7 mph N/A   Scattered Clouds
3:54 PM 78.8 °F - 64.4 °F 61% 29.87 in 10.0 mi SSE 15.0 mph - N/A   Scattered Clouds
4:14 PM 78.8 °F - 64.4 °F 61% 29.86 in 10.0 mi SSE 16.1 mph 20.7 mph N/A   Scattered Clouds
4:33 PM 78.8 °F - 64.4 °F 61% 29.86 in 10.0 mi SSE 16.1 mph 20.7 mph N/A   Scattered Clouds
4:54 PM 78.8 °F - 64.4 °F 61% 29.85 in 10.0 mi SSE 11.5 mph - N/A   Scattered Clouds
5:14 PM 80.6 °F 82.3 °F 64.4 °F 58% 29.83 in 10.0 mi South 15.0 mph 20.7 mph N/A   Scattered Clouds
5:34 PM 80.6 °F 82.3 °F 64.4 °F 58% 29.85 in 10.0 mi South 15.0 mph 23.0 mph N/A   Clear
5:54 PM 80.6 °F 82.3 °F 64.4 °F 58% 29.85 in 10.0 mi SSE 16.1 mph 23.0 mph N/A   Clear
6:14 PM 78.8 °F - 64.4 °F 61% 29.86 in 10.0 mi SSE 10.4 mph 17.3 mph N/A   Scattered Clouds
6:34 PM 78.8 °F - 62.6 °F 57% 29.86 in 10.0 mi SSE 11.5 mph 18.4 mph N/A   Clear
6:53 PM 78.8 °F - 64.4 °F 61% 29.86 in 10.0 mi SSE 6.9 mph 17.3 mph N/A   Scattered Clouds
7:14 PM 78.8 °F - 64.4 °F 61% 29.86 in 10.0 mi SSE 9.2 mph - N/A   Mostly Cloudy
7:34 PM 78.8 °F - 64.4 °F 61% 29.86 in 10.0 mi SE 5.8 mph - N/A   Overcast
7:54 PM 75.2 °F - 64.4 °F 69% 29.85 in 10.0 mi ESE 5.8 mph - N/A   Mostly Cloudy
8:14 PM 75.2 °F - 64.4 °F 69% 29.85 in 10.0 mi East 4.6 mph - N/A   Mostly Cloudy
8:34 PM 75.2 °F - 64.4 °F 69% 29.84 in 10.0 mi East 4.6 mph - N/A   Overcast
8:54 PM 73.4 °F - 64.4 °F 73% 29.83 in 10.0 mi East 5.8 mph - N/A   Mostly Cloudy
9:14 PM 73.4 °F - 64.4 °F 73% 29.82 in 10.0 mi East 5.8 mph - N/A   Mostly Cloudy
9:34 PM 73.4 °F - 64.4 °F 73% 29.82 in 10.0 mi East 6.9 mph - N/A   Scattered Clouds
9:54 PM 71.6 °F - 64.4 °F 78% 29.82 in 10.0 mi East 8.1 mph - N/A   Clear
10:14 PM 71.6 °F - 64.4 °F 78% 29.82 in 10.0 mi East 6.9 mph - N/A   Clear
10:34 PM 71.6 °F - 64.4 °F 78% 29.82 in 10.0 mi East 6.9 mph - N/A   Clear
10:54 PM 71.6 °F - 64.4 °F 78% 29.82 in 10.0 mi ESE 6.9 mph - N/A   Clear
11:14 PM 69.8 °F - 64.4 °F 83% 29.82 in 10.0 mi East 8.1 mph - N/A   Clear
11:34 PM 69.8 °F - 64.4 °F 83% 29.81 in 10.0 mi ESE 8.1 mph - N/A   Clear
11:54 PM 69.8 °F - 62.6 °F 78% 29.80 in 10.0 mi ESE 9.2 mph - N/A   Clear